Alpine, TX

3:31 PM CDT on July 23, 2016 (GMT -0500)
Alpine

Weather History for KE38 - January, 2014

Change the Weather History Date:

Monday, January 20, 2014

  Actual Average (KMRF) Record (KMRF)
Temperature  
Mean Temperature 58 °F -  
Max Temperature 72 °F 58 °F 73 °F (1999)
Min Temperature 44 °F 27 °F 8 °F (2008)
Degree Days  
Heating Degree Days 7    
Growing Degree Days 8 (Base 50)    
Moisture  
Dew Point 11 °F    
Average Humidity 18    
Maximum Humidity 28    
Minimum Humidity 8    
Precipitation  
Precipitation 0.00 in - - ()
Sea Level Pressure  
Sea Level Pressure 30.22 in    
Wind  
Wind Speed 10 mph (West)    
Max Wind Speed 18 mph    
Max Gust Speed 25 mph    
Visibility 10 miles    
Events      
Averages and records for this station are not official NWS values.
T = Trace of Precipitation, MM = Missing Value Source: NWS Daily Summary

Daily Weather History Graph

Daily Weather History Graph

Search for Another Location

Airport or City:

Trip Planner

Search our weather history database for the weather conditions in past years. The results will help you decide how hot, cold, wet, or windy it might be!

Date:

Astronomy

Jan. 20, 2014 Rise Set
Actual Time 7:51 AM CST 6:20 PM CST
Civil Twilight 7:25 AM CST 6:46 PM CST
Nautical Twilight 6:56 AM CST 7:15 PM CST
Astronomical Twilight 6:27 AM CST 7:44 PM CST
Moon 10:35 PM CST (1/20) 10:12 AM CST (1/20)
Length of Visible Light 11h 21m
Length of Day
10h 29m
Waning Gibbous, 82% of the Moon is Illuminated
Jan 20
Waning Gibbous
Jan 23
Last Quarter
Jan 30
New
Feb 6
First Quarter
Feb 14
Full

Hourly Weather History & Observations

Time (CST) Temp. Windchill Dew Point Humidity Pressure Visibility Wind Dir Wind Speed Gust Speed Precip Events Conditions
12:15 AM 50.9 °F - 12.0 °F 21% 30.21 in 10.0 mi NNE 3.5 mph - N/A   Clear
12:35 AM 52.9 °F - 12.2 °F 20% 30.21 in 10.0 mi Calm Calm - N/A   Clear
12:55 AM 50.9 °F - 12.0 °F 21% 30.20 in 10.0 mi SW 3.5 mph - N/A   Clear
1:15 AM 50.4 °F - 12.7 °F 22% 30.19 in 10.0 mi SW 9.2 mph - N/A   Clear
1:35 AM 49.3 °F - 12.2 °F 23% 30.19 in 10.0 mi SSW 10.4 mph - N/A   Clear
1:55 AM 48.7 °F - 12.2 °F 23% 30.18 in 10.0 mi SSW 10.4 mph - N/A   Clear
2:15 AM 48.4 °F - 12.2 °F 23% 30.18 in 10.0 mi SSW 9.2 mph - N/A   Clear
2:35 AM 47.7 °F - 12.2 °F 24% 30.18 in 10.0 mi South 11.5 mph - N/A   Clear
2:55 AM 48.6 °F - 12.6 °F 24% 30.18 in 10.0 mi SSW 11.5 mph - N/A   Clear
3:15 AM 49.6 °F - 12.2 °F 22% 30.18 in 10.0 mi South 10.4 mph - N/A   Clear
3:35 AM 47.1 °F - 12.6 °F 25% 30.18 in 10.0 mi South 12.7 mph - N/A   Clear
3:55 AM 50.4 °F - 12.2 °F 22% 30.18 in 10.0 mi South 8.1 mph - N/A   Clear
4:15 AM 47.7 °F - 12.9 °F 25% 30.18 in 10.0 mi ESE 6.9 mph - N/A   Clear
4:35 AM 52.7 °F - 13.5 °F 21% 30.16 in 10.0 mi WSW 16.1 mph - N/A   Clear
4:55 AM 52.0 °F - 13.5 °F 22% 30.16 in 10.0 mi WSW 13.8 mph - N/A   Clear
5:15 AM 51.6 °F - 13.6 °F 22% 30.16 in 10.0 mi WSW 18.4 mph - N/A   Clear
5:35 AM 51.8 °F - 13.8 °F 22% 30.16 in 10.0 mi WSW 15.0 mph - N/A   Clear
5:55 AM 51.1 °F - 14.0 °F 23% 30.17 in 10.0 mi WSW 12.7 mph - N/A   Clear
6:15 AM 50.9 °F - 14.2 °F 23% 30.18 in 10.0 mi WSW 10.4 mph - N/A   Clear
6:35 AM 50.4 °F - 14.2 °F 24% 30.18 in 10.0 mi WSW 12.7 mph - N/A   Clear
6:55 AM 49.6 °F - 14.2 °F 24% 30.19 in 10.0 mi WSW 8.1 mph - N/A   Clear
7:15 AM 47.8 °F - 14.0 °F 26% 30.19 in 10.0 mi SW 11.5 mph - N/A   Clear
7:35 AM 50.0 °F - 14.0 °F 24% 30.18 in 10.0 mi SW 15.0 mph - N/A   Clear
7:55 AM 51.6 °F - 14.2 °F 23% 30.18 in 10.0 mi WSW 17.3 mph - N/A   Clear
8:15 AM 52.7 °F - 13.6 °F 21% 30.19 in 10.0 mi ESE 4.6 mph - N/A   Clear
8:35 AM 55.2 °F - 13.3 °F 19% 30.19 in 10.0 mi SSW 3.5 mph - N/A   Clear
8:55 AM 56.3 °F - 13.6 °F 19% 30.19 in 10.0 mi WSW 13.8 mph 21.9 mph N/A   Clear
9:15 AM 58.3 °F - 13.8 °F 17% 30.19 in 10.0 mi WSW 17.3 mph 21.9 mph N/A   Clear
9:35 AM 59.9 °F - 14.2 °F 17% 30.19 in 10.0 mi WSW 18.4 mph 24.2 mph N/A   Clear
9:55 AM 60.8 °F - 12.9 °F 15% 30.19 in 10.0 mi WSW 16.1 mph 24.2 mph N/A   Clear
10:15 AM 61.2 °F - 12.9 °F 15% 30.20 in 10.0 mi WSW 12.7 mph 21.9 mph N/A   Clear
10:35 AM 61.9 °F - 13.5 °F 15% 30.20 in 10.0 mi WSW 18.4 mph 24.2 mph N/A   Clear
10:55 AM 62.2 °F - 13.8 °F 15% 30.20 in 10.0 mi WSW 17.3 mph 25.3 mph N/A   Clear
11:15 AM 65.3 °F - 13.3 °F 13% 30.20 in 10.0 mi West 17.3 mph - N/A   Clear
11:35 AM 67.1 °F - 11.5 °F 12% 30.20 in 10.0 mi West 16.1 mph 25.3 mph N/A   Clear
11:55 AM 67.5 °F - 11.5 °F 11% 30.20 in 10.0 mi WSW 12.7 mph - N/A   Clear
12:15 PM 68.2 °F - 11.8 °F 11% 30.20 in 10.0 mi WSW 11.5 mph 16.1 mph N/A   Clear
12:35 PM 69.3 °F - 12.2 °F 11% 30.19 in 10.0 mi WSW 11.5 mph - N/A   Clear
12:55 PM 70.2 °F - 11.1 °F 10% 30.17 in 10.0 mi WSW 13.8 mph 20.7 mph N/A   Clear
1:15 PM 71.1 °F - 10.6 °F 10% 30.16 in 10.0 mi WSW 16.1 mph 21.9 mph N/A   Clear
1:35 PM 70.9 °F - 9.7 °F 9% 30.15 in 10.0 mi West 12.7 mph 23.0 mph N/A   Clear
1:55 PM 71.8 °F - 9.5 °F 9% 30.15 in 10.0 mi West 17.3 mph 23.0 mph N/A   Clear
2:15 PM 72.0 °F - 8.2 °F 8% 30.14 in 10.0 mi West 11.5 mph 23.0 mph N/A   Clear
2:35 PM 72.9 °F - 8.1 °F 8% 30.14 in 10.0 mi WNW 16.1 mph 20.7 mph N/A   Clear
2:55 PM 72.7 °F - 7.3 °F 8% 30.14 in 10.0 mi West 15.0 mph 20.7 mph N/A   Clear
3:15 PM 72.3 °F - 7.3 °F 8% 30.14 in 10.0 mi WNW 15.0 mph 20.7 mph N/A   Clear
3:35 PM 72.5 °F - 7.5 °F 8% 30.14 in 10.0 mi NW 11.5 mph 20.7 mph N/A   Clear
3:55 PM 71.2 °F - 6.1 °F 8% 30.15 in 10.0 mi NNW 17.3 mph 23.0 mph N/A   Clear
4:15 PM 70.3 °F - 5.7 °F 8% 30.15 in 10.0 mi NW 12.7 mph - N/A   Clear
4:35 PM 70.0 °F - 5.2 °F 8% 30.16 in 10.0 mi NW 17.3 mph 25.3 mph N/A   Clear
4:55 PM 69.8 °F - 5.4 °F 8% 30.17 in 10.0 mi NNW 16.1 mph - N/A   Clear
5:15 PM 68.9 °F - 7.0 °F 9% 30.18 in 10.0 mi NW 13.8 mph - N/A   Clear
5:35 PM 67.3 °F - 8.1 °F 10% 30.20 in 10.0 mi NW 12.7 mph - N/A   Clear
5:55 PM 65.7 °F - 7.0 °F 10% 30.21 in 10.0 mi NNW 9.2 mph - N/A   Clear
6:15 PM 61.5 °F - 8.2 °F 12% 30.23 in 10.0 mi North 9.2 mph - N/A   Clear
6:35 PM 57.9 °F - 8.4 °F 14% 30.24 in 10.0 mi North 11.5 mph - N/A   Clear
6:55 PM 55.8 °F - 8.1 °F 15% 30.25 in 10.0 mi NNW 10.4 mph - N/A   Clear
7:15 PM 54.3 °F - 8.8 °F 16% 30.27 in 10.0 mi North 12.7 mph - N/A   Clear
7:35 PM 53.1 °F - 9.5 °F 17% 30.28 in 10.0 mi North 12.7 mph - N/A   Clear
7:55 PM 52.0 °F - 9.7 °F 18% 30.30 in 10.0 mi North 4.6 mph - N/A   Clear
8:15 PM 50.9 °F - 10.4 °F 20% 30.31 in 10.0 mi NNE 6.9 mph - N/A   Clear
8:35 PM 48.9 °F - 10.9 °F 22% 30.32 in 10.0 mi North 8.1 mph - N/A   Clear
8:55 PM 46.9 °F - 10.8 °F 23% 30.32 in 10.0 mi North 10.4 mph - N/A   Clear
9:15 PM 48.0 °F - 11.3 °F 23% 30.34 in 10.0 mi North 9.2 mph - N/A   Clear
9:35 PM 44.6 °F 40.2 °F 11.3 °F 26% 30.35 in 10.0 mi North 8.1 mph - N/A   Clear
9:55 PM 45.3 °F 40.6 °F 11.5 °F 25% 30.36 in 10.0 mi North 9.2 mph - N/A   Clear
10:15 PM 45.7 °F 42.0 °F 11.7 °F 25% 30.38 in 10.0 mi North 6.9 mph - N/A   Clear
10:35 PM 50.7 °F - 12.7 °F 22% 30.39 in 10.0 mi NNE 15.0 mph - N/A   Clear
10:55 PM 50.2 °F - 12.9 °F 23% 30.42 in 10.0 mi NNE 15.0 mph - N/A   Clear
11:15 PM 48.7 °F - 12.7 °F 24% 30.43 in 10.0 mi NNE 11.5 mph - N/A   Clear
11:35 PM 46.4 °F 42.9 °F 12.9 °F 26% 30.46 in 10.0 mi NNE 6.9 mph - N/A   Clear
11:55 PM 44.8 °F 39.0 °F 13.5 °F 28% 30.47 in 10.0 mi North 11.5 mph - N/A   Clear